OE3APM-13 Weather Reports


time (UTC)temp
C
wind
direction
speed
KPH
gust
KPH
rain 1hr
cm
rain 24hr
cm
rain mn
cm
humidity
%
barometer
mb
20260502195601 11 149 6.4 11.3 0.00 0.00 0.00 60 1019.9
20260502195101 11 148 6.4 11.3 0.00 0.00 0.00 60 1019.8
20260502194604 11 140 8.0 12.9 0.00 0.00 0.00 60 1019.9
20260502194101 11 144 8.0 12.9 0.00 0.00 0.00 61 1019.9
20260502193557 11 156 6.4 11.3 0.00 0.00 0.00 64 1019.9
20260502193046 11 136 4.8 11.3 0.00 0.00 0.00 64 1019.9
20260502192541 12 121 4.8 8.0 0.00 0.00 0.00 61 1019.9
20260502192041 12 125 3.2 6.4 0.00 0.00 0.00 60 1019.9
20260502191542 12 121 3.2 6.4 0.00 0.00 0.00 58 1019.9
20260502191043 13 121 3.2 6.4 0.00 0.00 0.00 55 1019.9
20260502190542 13 126 3.2 6.4 0.00 0.00 0.00 52 1019.9
20260502190045 14 144 3.2 6.4 0.00 0.00 0.00 51 1019.9
20260502185542 15 138 3.2 6.4 0.00 0.00 0.00 53 1019.9
20260502185043 15 132 3.2 4.8 0.00 0.00 0.00 54 1019.8
20260502184541 16 130 3.2 4.8 0.00 0.00 0.00 54 1019.8
20260502184042 16 130 1.6 4.8 0.00 0.00 0.00 52 1019.8
20260502183539 17 130 0.0 0.0 0.00 0.00 0.00 49 1019.8
20260502183037 17 130 1.6 3.2 0.00 0.00 0.00 47 1019.8
20260502182537 18 130 1.6 3.2 0.00 0.00 0.00 42 1019.7
20260502182036 18 130 1.6 3.2 0.00 0.00 0.00 39 1019.7
20260502181538 19 130 3.2 4.8 0.00 0.00 0.00 37 1019.7
20260502181035 19 130 3.2 6.4 0.00 0.00 0.00 36 1019.6
20260502180533 20 113 3.2 8.0 0.00 0.00 0.00 36 1019.6
20260502164021 23 139 6.4 12.9 0.00 0.00 0.00 27 1019.8
20260502163521 23 128 6.4 12.9 0.00 0.00 0.00 27 1019.8
20260502163023 23 161 6.4 12.9 0.00 0.00 0.00 27 1019.9
20260502162509 23 132 6.4 14.5 0.00 0.00 0.00 27 1020.0
20260502162008 23 109 6.4 14.5 0.00 0.00 0.00 28 1020.2
20260502161502 23 120 6.4 12.9 0.00 0.00 0.00 26 1020.2
20260502161001 23 164 6.4 12.9 0.00 0.00 0.00 27 1020.3
20260502160502 23 117 6.4 12.9 0.00 0.00 0.00 28 1020.3
20260502152000 23 126 6.4 16.1 0.00 0.00 0.00 28 1020.7
20260502151457 24 174 3.2 9.7 0.00 0.00 0.00 27 1020.8
20260502150956 23 171 3.2 9.7 0.00 0.00 0.00 28 1020.9
20260502150457 23 252 4.8 9.7 0.00 0.00 0.00 26 1020.9
20260502130440 23 199 8.0 16.1 0.00 0.00 0.00 27 1022.2
20260502123430 22 211 6.4 17.7 0.00 0.00 0.00 27 1022.4
20260502122933 22 81 8.0 17.7 0.00 0.00 0.00 30 1022.5
20260502122430 22 48 8.0 17.7 0.00 0.00 0.00 30 1022.6
20260502121929 23 160 4.8 14.5 0.00 0.00 0.00 30 1022.7
20260502121418 23 88 4.8 11.3 0.00 0.00 0.00 31 1022.7
20260502120913 23 265 4.8 11.3 0.00 0.00 0.00 28 1022.7
20260502120405 23 232 4.8 9.7 0.00 0.00 0.00 30 1022.8
20260502115909 23 211 6.4 14.5 0.00 0.00 0.00 28 1022.9
20260502115404 22 173 6.4 14.5 0.00 0.00 0.00 29 1023.0
20260502114906 22 95 8.0 19.3 0.00 0.00 0.00 27 1022.9
20260502114406 22 128 6.4 19.3 0.00 0.00 0.00 29 1023.0
20260502113906 22 129 6.4 14.5 0.00 0.00 0.00 31 1023.1
20260502113406 22 19 6.4 14.5 0.00 0.00 0.00 29 1023.2
20260502112905 22 129 6.4 14.5 0.00 0.00 0.00 31 1023.2
20260502112405 22 164 4.8 11.3 0.00 0.00 0.00 34 1023.3
20260502111907 22 128 3.2 11.3 0.00 0.00 0.00 30 1023.4
20260502111402 22 197 3.2 11.3 0.00 0.00 0.00 29 1023.4
20260502110905 22 259 4.8 14.5 0.00 0.00 0.00 35 1023.4
20260502110404 21 48 6.4 17.7 0.00 0.00 0.00 32 1023.5
20260502105903 21 176 8.0 17.7 0.00 0.00 0.00 33 1023.5
20260502105402 21 45 6.4 16.1 0.00 0.00 0.00 30 1023.6
20260502104903 21 198 6.4 12.9 0.00 0.00 0.00 30 1023.6
20260502104405 21 185 8.0 16.1 0.00 0.00 0.00 29 1023.7
20260502103404 21 114 4.8 11.3 0.00 0.00 0.00 32 1023.7
20260502102903 21 257 6.4 16.1 0.00 0.00 0.00 35 1023.7
20260502102401 21 178 6.4 16.1 0.00 0.00 0.00 35 1024.0
20260502101854 21 85 6.4 16.1 0.00 0.00 0.00 35 1024.1
20260502101348 21 86 6.4 14.5 0.00 0.00 0.00 34 1024.1
20260502100837 21 74 8.0 16.1 0.00 0.00 0.00 34 1024.2
20260502100331 21 83 6.4 16.1 0.00 0.00 0.00 36 1024.1
20260502091319 20 101 6.4 14.5 0.00 0.00 0.00 37 1024.9
20260502090819 20 129 6.4 14.5 0.00 0.00 0.00 38 1024.9
20260502090319 20 105 4.8 14.5 0.00 0.00 0.00 36 1024.9
20260502071305 16 329 0.0 4.8 0.00 0.00 0.00 56 1025.4
20260502070804 15 331 0.0 0.0 0.00 0.00 0.00 58 1025.4
20260502070302 15 331 0.0 0.0 0.00 0.00 0.00 58 1025.4
20260502065803 15 332 0.0 0.0 0.00 0.00 0.00 58 1025.5
20260502065306 14 335 0.0 3.2 0.00 0.00 0.00 62 1025.5
20260502064802 13 335 0.0 3.2 0.00 0.00 0.00 61 1025.5
20260502064303 13 347 0.0 3.2 0.00 0.00 0.00 57 1025.5
20260502063801 13 123 0.0 0.0 0.00 0.00 0.00 69 1025.5
20260502063300 12 123 0.0 0.0 0.00 0.00 0.00 71 1025.5
20260502062801 11 123 0.0 0.0 0.00 0.00 0.00 73 1025.5
20260502062301 10 27 0.0 0.0 0.00 0.00 0.00 78 1025.5
20260502061803 10 26 0.0 0.0 0.00 0.00 0.00 79 1025.5
20260502061301 9 26 0.0 0.0 0.00 0.00 0.00 83 1025.5
20260502060753 8 26 0.0 0.0 0.00 0.00 0.00 84 1025.7
20260502060252 7 26 0.0 0.0 0.00 0.00 0.00 85 1025.5
20260502055750 7 26 0.0 0.0 0.00 0.00 0.00 87 1025.5
20260502055252 6 26 0.0 0.0 0.00 0.00 0.00 89 1025.5
20260502054750 6 26 0.0 0.0 0.00 0.00 0.00 89 1025.4
20260502054251 5 26 0.0 0.0 0.00 0.00 0.00 90 1025.5
20260502053251 4 26 0.0 0.0 0.00 0.00 0.00 92 1025.5
20260502052744 4 26 0.0 0.0 0.00 0.00 0.00 93 1025.4
20260502052241 3 26 0.0 0.0 0.00 0.00 0.00 94 1025.4
20260502051740 3 26 0.0 1.6 0.00 0.00 0.00 94 1025.5
20260502051239 2 26 1.6 4.8 0.00 0.00 0.00 94 1025.5
20260502050739 2 26 3.2 4.8 0.00 0.00 0.00 93 1025.5
20260502050235 2 26 1.6 3.2 0.00 0.00 0.00 94 1025.4
20260502045736 1 26 1.6 6.4 0.00 0.00 0.00 93 1025.4
20260502045236 1 26 1.6 6.4 0.00 0.00 0.00 93 1025.4
20260502044732 1 19 0.0 4.8 0.00 0.00 0.00 93 1025.4
20260502044233 1 45 0.0 0.0 0.00 0.00 0.00 92 1025.3
20260502043731 0 45 0.0 0.0 0.00 0.00 0.00 92 1025.3
20260502043241 0 45 0.0 0.0 0.00 0.00 0.00 91 1025.3
20260502042729 0 45 0.0 0.0 0.00 0.00 0.00 91 1025.4
20260502042229 0 45 0.0 0.0 0.00 0.00 0.00 90 1025.4
20260502041728 0 45 0.0 0.0 0.00 0.00 0.00 90 1025.4
20260502041225 0 45 0.0 0.0 0.00 0.00 0.00 90 1025.4
20260502040725 0 45 0.0 0.0 0.00 0.00 0.00 90 1025.3
20260502040223 0 45 0.0 0.0 0.00 0.00 0.00 90 1025.3
20260502035720 0 45 0.0 0.0 0.00 0.00 0.00 90 1025.3
20260502035221 0 45 0.0 0.0 0.00 0.00 0.00 90 1025.3
20260502034720 1 45 0.0 0.0 0.00 0.00 0.00 90 1025.3
20260502034219 1 45 0.0 0.0 0.00 0.00 0.00 91 1025.3
20260502033720 1 45 0.0 0.0 0.00 0.00 0.00 91 1025.3
20260502033219 1 45 0.0 0.0 0.00 0.00 0.00 91 1025.2
20260502032711 1 45 0.0 0.0 0.00 0.00 0.00 91 1025.2
20260502032206 1 45 0.0 3.2 0.00 0.00 0.00 91 1025.2
20260502031705 1 45 0.0 3.2 0.00 0.00 0.00 91 1025.2
20260502031204 1 45 0.0 1.6 0.00 0.00 0.00 91 1025.2
20260502030704 0 45 1.6 4.8 0.00 0.00 0.00 90 1025.3
20260502030202 0 45 1.6 4.8 0.00 0.00 0.00 90 1025.3
20260502025701 0 45 3.2 4.8 0.00 0.00 0.00 89 1025.3
20260502025201 1 49 1.6 4.8 0.00 0.00 0.00 89 1025.3
20260502024701 1 49 0.0 4.8 0.00 0.00 0.00 89 1025.2
20260502024202 1 48 0.0 0.0 0.00 0.00 0.00 89 1025.3
20260502023701 1 48 0.0 0.0 0.00 0.00 0.00 89 1025.3
20260502023204 1 48 0.0 0.0 0.00 0.00 0.00 89 1025.4
20260502022701 1 48 0.0 0.0 0.00 0.00 0.00 88 1025.4
20260502022202 1 48 0.0 0.0 0.00 0.00 0.00 88 1025.4
20260502021705 1 48 0.0 0.0 0.00 0.00 0.00 88 1025.4
20260502021202 1 48 0.0 0.0 0.00 0.00 0.00 88 1025.5
20260502020657 1 48 0.0 0.0 0.00 0.00 0.00 89 1025.4
20260502020152 1 48 0.0 0.0 0.00 0.00 0.00 89 1025.4
20260502015649 1 48 0.0 0.0 0.00 0.00 0.00 89 1025.5
20260502015147 1 48 0.0 1.6 0.00 0.00 0.00 89 1025.5
20260502014647 1 48 1.6 4.8 0.00 0.00 0.00 89 1025.7
20260502014142 1 48 1.6 4.8 0.00 0.00 0.00 88 1025.7
20260502013643 1 47 0.0 4.8 0.00 0.00 0.00 88 1025.8
20260502013143 1 46 0.0 0.0 0.00 0.00 0.00 87 1025.8
20260502012642 1 46 0.0 0.0 0.00 0.00 0.00 87 1025.8
20260502012142 1 46 0.0 0.0 0.00 0.00 0.00 87 1025.8
20260502011641 1 46 0.0 0.0 0.00 0.00 0.00 87 1025.8
20260502011142 2 46 1.6 3.2 0.00 0.00 0.00 87 1025.9
20260502010642 2 46 1.6 3.2 0.00 0.00 0.00 87 1025.9
20260502010140 2 46 1.6 3.2 0.00 0.00 0.00 87 1025.9
20260502005639 2 46 0.0 3.2 0.00 0.00 0.00 87 1026.0
20260502005137 2 46 1.6 4.8 0.00 0.00 0.00 86 1026.0
20260502004635 2 46 1.6 4.8 0.00 0.00 0.00 86 1026.0
20260502004132 2 53 1.6 4.8 0.00 0.00 0.00 87 1026.0
20260502003630 2 53 0.0 4.8 0.00 0.00 0.00 87 1026.1
20260502003132 2 51 0.0 0.0 0.00 0.00 0.00 87 1026.1
20260502002629 2 51 0.0 3.2 0.00 0.00 0.00 87 1026.2
20260502002118 2 51 0.0 3.2 0.00 0.00 0.00 87 1026.2
20260502001617 2 51 1.6 4.8 0.00 0.00 0.00 87 1026.2
20260502001111 2 51 1.6 4.8 0.00 0.00 0.00 86 1026.1
20260502000610 2 14 0.0 0.0 0.00 0.00 0.00 86 1026.1
20260502000109 2 14 0.0 0.0 0.00 0.00 0.00 86 1026.1
20260501235609 2 14 0.0 0.0 0.00 0.00 0.00 85 1026.2
20260501235106 2 14 0.0 0.0 0.00 0.00 0.00 85 1026.1
20260501234603 2 14 0.0 0.0 0.00 0.00 0.00 84 1026.2
20260501234102 3 14 0.0 0.0 0.00 0.00 0.00 84 1026.2
20260501233603 3 14 0.0 0.0 0.00 0.00 0.00 84 1026.2
20260501233102 3 14 0.0 0.0 0.00 0.00 0.00 84 1026.2
20260501232602 3 14 0.0 0.0 0.00 0.00 0.00 84 1026.3
20260501232101 3 14 0.0 0.0 0.00 0.00 0.00 85 1026.3
20260501231603 3 14 0.0 0.0 0.00 0.00 0.00 84 1026.3
20260501231102 3 14 0.0 0.0 0.00 0.00 0.00 84 1026.3
20260501230602 3 14 0.0 0.0 0.00 0.00 0.00 84 1026.3
20260501225603 3 14 0.0 0.0 0.00 0.00 0.00 84 1026.4
20260501225103 3 14 0.0 0.0 0.00 0.00 0.00 84 1026.4
20260501224558 3 14 0.0 0.0 0.00 0.00 0.00 83 1026.4
20260501224052 3 14 0.0 0.0 0.00 0.00 0.00 83 1026.4
20260501223550 3 14 0.0 0.0 0.00 0.00 0.00 83 1026.4
20260501223049 3 14 0.0 0.0 0.00 0.00 0.00 82 1026.4
20260501222548 3 14 0.0 0.0 0.00 0.00 0.00 81 1026.3
20260501222046 3 14 0.0 0.0 0.00 0.00 0.00 81 1026.4
20260501221544 3 14 0.0 0.0 0.00 0.00 0.00 80 1026.3
20260501221043 4 14 0.0 0.0 0.00 0.00 0.00 80 1026.4
20260501220542 4 14 0.0 0.0 0.00 0.00 0.00 79 1026.4
20260501220041 4 14 0.0 0.0 0.00 0.00 0.00 79 1026.4
20260501215539 4 14 0.0 0.0 0.00 0.00 0.00 79 1026.4
20260501215036 4 14 0.0 0.0 0.00 0.00 0.00 78 1026.4
20260501214536 5 14 0.0 0.0 0.00 0.00 0.00 79 1026.4
20260501214030 5 14 0.0 0.0 0.00 0.00 0.00 78 1026.5
20260501213530 5 14 0.0 0.0 0.00 0.00 0.00 77 1026.4
20260501213030 5 14 0.0 0.0 0.00 0.00 0.00 77 1026.4
20260501212528 5 14 0.0 0.0 0.00 0.00 0.00 77 1026.4
20260501212028 5 14 0.0 0.0 0.00 0.00 0.00 75 1026.4
20260501211529 5 14 0.0 0.0 0.00 0.00 0.00 75 1026.4
20260501211030 5 14 0.0 0.0 0.00 0.00 0.00 75 1026.5
20260501210523 5 14 0.0 0.0 0.00 0.00 0.00 75 1026.4
20260501210020 6 14 0.0 0.0 0.00 0.00 0.00 75 1026.5
20260501205519 6 14 0.0 0.0 0.00 0.00 0.00 74 1026.4
20260501205021 6 14 0.0 0.0 0.00 0.00 0.00 74 1026.4
20260501204517 6 14 0.0 0.0 0.00 0.00 0.00 74 1026.5
20260501204019 6 14 0.0 0.0 0.00 0.00 0.00 73 1026.5
20260501203516 6 14 0.0 0.0 0.00 0.00 0.00 72 1026.4
20260501203019 6 14 0.0 0.0 0.00 0.00 0.00 72 1026.5
20260501202514 6 14 0.0 0.0 0.00 0.00 0.00 72 1026.5
20260501202017 7 14 0.0 0.0 0.00 0.00 0.00 71 1026.5
20260501201522 7 14 0.0 0.0 0.00 0.00 0.00 71 1026.4
20260501201011 7 14 0.0 0.0 0.00 0.00 0.00 70 1026.4
20260501200510 7 14 0.0 0.0 0.00 0.00 0.00 69 1026.4